GFSNGP_500_rhum_105.txt.gz
RH
100 100 99 98 100 100 100 100 94 96 96 87 81 66 52 30 32 27 23 20 16 12 10 7 6 5 5 4 5 37 60 89 97 98 95 98 97 98 99 93 95 97 97 99
100 100 98 97 100 99 84 65 45 32 19 24 29 14 11 6 8 7 7 8 8 7 6 5 4 4 3 3 36 59 76 94 93 98 98 94 96 98 98 90 98 94 92 91
100 95 88 51 45 10 6 6 5 5 5 4 5 5 4 4 4 4 4 3 3 3 3 3 3 3 3 32 69 87 94 97 97 94 96 97 93 89 97 99 98 98 96 90
62 11 8 7 6 5 5 5 5 6 6 6 8 8 9 13 8 6 4 7 10 9 5 4 30 22 39 76 97 99 99 98 98 95 98 99 99 97 96 96 93 94 96 90
7 7 6 6 7 12 12 11 14 12 13 16 26 57 74 67 28 25 22 25 84 99 46 81 100 100 98 100 99 100 100 100 99 98 98 98 98 99 96 91 84 98 91 96
6 6 9 18 16 21 29 27 45 42 50 64 77 88 72 100 100 81 100 100 99 100 100 100 100 100 100 98 92 99 99 100 100 99 99 98 98 98 99 88 82 90 98 93
6 16 42 30 27 39 40 45 72 82 69 69 78 83 80 96 100 100 100 100 100 100 100 100 98 76 100 52 49 69 90 99 100 100 100 98 98 98 98 99 100 100 99 98
19 22 32 38 34 38 48 67 82 69 88 86 89 63 79 97 100 100 100 100 100 100 100 76 70 70 84 62 40 33 32 38 75 98 98 100 100 97 99 98 97 97 98 98
31 42 35 42 53 52 65 92 100 96 96 98 94 94 100 100 100 100 100 100 100 99 69 48 45 41 38 34 31 26 25 24 26 30 64 93 95 100 100 99 100 100 99 99
30 39 46 56 65 92 96 98 97 99 100 100 100 100 100 100 100 96 89 80 48 36 32 31 28 25 25 30 27 25 23 24 25 23 21 21 24 32 72 95 98 100 99 99
43 55 51 61 82 96 100 100 98 99 100 97 98 91 78 79 70 65 52 40 32 32 25 17 14 12 10 9 8 7 7 8 9 9 10 14 16 17 19 20 29 64 93 98
50 69 60 62 85 95 99 92 100 100 96 89 64 62 54 46 40 38 37 32 30 23 19 17 14 13 11 9 8 8 8 7 6 6 6 6 6 6 5 6 11 16 18 25
52 60 79 86 100 99 100 100 100 98 84 66 52 30 25 31 35 35 31 29 28 28 25 23 18 14 10 10 11 10 9 8 7 7 7 7 7 7 6 6 6 6 5 8
57 54 82 88 100 100 100 100 100 85 74 49 31 36 35 34 36 36 36 30 24 20 18 17 16 15 14 14 13 14 14 14 13 13 12 12 12 11 10 10 10 10 10 12
70 57 88 90 99 97 100 87 92 75 60 45 46 36 33 35 33 31 20 17 18 19 18 18 19 19 21 21 21 21 20 19 19 18 18 18 17 17 17 16 16 14 12 12
70 69 88 100 100 98 100 89 94 76 60 40 35 25 24 26 33 19 19 24 20 20 29 30 28 28 26 26 26 26 27 27 26 26 25 24 22 21 21 20 19 20 21 21
75 68 80 99 100 77 70 72 79 65 48 27 21 25 28 35 23 24 24 26 33 36 34 30 31 31 30 30 31 30 30 28 25 22 24 26 27 26 25 24 23 21 22 22
85 62 65 76 97 98 91 79 50 47 33 25 29 32 35 25 27 27 36 41 40 35 33 35 33 33 35 37 38 37 35 32 28 28 30 31 30 29 29 30 28 28 26 28
100 75 49 41 38 39 60 67 31 26 27 27 34 36 27 27 34 40 43 41 34 34 38 40 40 43 45 44 41 38 35 31 31 34 38 34 32 32 32 32 31 31 31 30
100 83 48 25 19 20 23 27 31 27 28 38 36 28 30 39 41 46 40 35 36 41 44 46 47 46 45 43 38 34 32 37 40 36 33 32 27 21 16 13 11 10 10 11
84 81 64 31 19 22 21 27 28 27 40 35 29 32 45 48 50 45 45 43 47 51 49 47 46 42 41 40 36 34 40 40 34 31 23 13 8 8 9 9 10 11 11 11
74 76 58 37 29 26 20 19 24 35 35 31 39 54 58 54 52 52 50 54 55 50 48 48 46 45 46 46 44 47 41 32 23 10 9 12 14 17 18 19 19 19 18 18
95 69 68 48 41 28 22 39 43 37 36 57 64 64 62 60 56 60 64 62 58 56 56 60 54 49 51 52 52 43 30 12 10 14 18 20 22 24 25 26 26 27 27 28
100 100 100 75 45 45 55 42 39 60 67 68 70 70 62 60 65 64 62 60 60 61 59 61 58 56 58 56 44 24 10 13 18 21 24 26 29 31 34 36 36 34 33 32
81 74 72 67 56 47 48 67 77 76 80 77 68 65 66 64 62 61 61 62 63 60 63 65 63 62 60 44 21 11 16 22 26 29 32 35 39 42 42 42 41 38 35 32
65 68 59 53 61 80 87 84 83 80 75 70 65 62 63 64 64 64 64 63 62 73 76 65 68 64 44 20 11 17 23 25 28 31 34 37 37 37 36 32 30 28 27 26
64 58 58 70 79 76 71 68 66 62 59 59 61 62 63 63 63 64 64 66 79 83 73 72 66 46 19 12 18 23 24 25 27 31 32 34 32 29 28 28 28 28 27 26

GFSNGP_500_rhum_111.txt.gz
RH
100 99 88 100 95 99 94 86 96 100 88 63 49 53 66 75 72 73 79 82 68 48 44 52 55 60 64 61 60 54 50 28 18 14 12 7 6 5 2 30 54 74 74 76
100 100 97 100 100 92 90 100 99 92 74 68 69 68 63 60 51 49 52 52 45 42 50 54 32 28 27 24 22 44 24 17 16 14 11 6 5 3 16 54 58 75 82 88
98 100 100 93 96 100 100 100 100 100 83 87 78 78 79 66 61 54 49 46 36 22 10 5 5 5 5 6 7 9 9 10 10 9 7 6 3 4 62 77 75 73 82 92
100 100 94 82 84 96 100 100 92 54 20 9 6 6 5 5 5 4 4 4 4 4 4 3 3 3 3 3 3 3 2 2 2 2 3 2 5 29 84 96 86 91 91 91
98 94 98 87 93 96 72 29 10 7 9 10 12 14 16 17 20 24 26 23 17 16 14 14 16 37 24 37 44 57 55 62 50 39 57 83 84 90 100 99 95 87 93 99
100 100 96 72 33 17 8 11 18 15 13 18 36 54 72 57 71 41 81 78 82 100 100 100 100 100 100 100 100 100 100 100 100 100 100 100 100 99 100 99 97 96 97 98
100 92 54 15 6 7 13 21 18 27 45 42 43 53 54 66 82 72 99 99 98 100 100 100 100 100 100 100 100 100 100 100 100 100 100 100 100 100 100 100 99 100 99 98
32 9 5 8 12 23 23 18 34 55 68 49 59 69 63 65 48 87 100 96 97 100 100 100 100 100 100 100 100 100 100 100 98 97 97 73 85 97 99 100 100 100 99 99
9 6 10 14 27 26 22 35 53 70 87 80 79 82 44 55 96 100 100 100 100 100 100 100 100 100 99 80 72 86 92 82 77 65 75 82 39 18 31 53 90 97 98 100
9 22 23 20 23 25 33 51 89 71 81 93 95 83 91 94 100 100 100 100 100 100 99 98 83 82 92 56 21 16 14 11 10 9 8 6 5 6 19 20 16 36 46 58
9 20 23 24 26 38 50 73 85 85 99 98 98 100 97 95 100 100 100 98 97 77 63 33 22 19 18 17 16 14 14 14 12 11 11 10 10 9 8 6 4 6 6 15
14 18 28 29 31 34 62 91 93 94 99 100 100 100 100 90 90 72 62 30 26 24 21 19 19 19 20 20 20 18 17 16 15 15 14 13 13 12 10 9 8 7 6 5
9 18 38 37 35 39 67 92 90 97 100 92 72 68 59 56 33 27 30 25 20 20 22 23 25 25 20 21 22 22 20 20 20 21 22 23 20 17 13 12 11 10 10 9
7 10 36 48 49 51 88 97 92 100 80 57 55 63 52 32 30 29 20 22 24 23 24 27 24 25 26 24 22 23 26 28 31 30 26 21 20 17 15 14 13 13 11 10
8 9 13 40 50 64 86 100 99 100 70 57 68 55 41 31 32 21 22 24 24 21 24 25 25 24 27 30 32 29 27 29 28 24 22 22 20 17 16 15 15 15 14 12
9 9 11 16 44 58 77 93 100 100 76 59 59 49 44 45 36 23 22 23 21 24 29 30 29 28 29 29 26 25 27 26 23 21 19 16 15 15 14 14 13 14 15 13
10 10 12 18 39 54 76 91 100 100 82 65 49 48 57 48 28 24 25 26 29 38 39 35 34 31 33 33 30 31 32 28 23 19 18 19 18 16 15 15 14 15 15 13
14 13 14 22 43 72 76 93 100 100 92 66 50 43 54 42 28 24 27 31 34 42 40 38 37 40 41 38 39 37 33 30 29 27 27 24 22 20 18 19 20 18 16 16
39 27 26 60 78 100 100 100 100 100 96 67 40 39 47 33 27 27 29 31 41 48 48 47 44 47 44 42 38 33 32 33 35 34 32 29 27 26 26 25 23 20 16 11
61 47 96 96 87 100 100 100 100 100 98 69 41 42 38 30 28 32 38 45 54 56 55 50 50 48 43 36 33 34 36 40 39 36 35 34 33 30 27 23 17 10 7 7
80 100 100 98 86 100 100 100 100 89 71 55 46 36 38 33 32 36 40 56 63 62 55 49 43 36 32 33 34 37 41 43 40 38 38 34 31 28 21 11 8 10 13 13
100 100 100 100 97 100 100 92 100 96 66 46 39 42 41 34 36 41 61 64 62 60 49 40 35 34 36 38 42 44 45 43 40 38 34 32 28 18 9 10 14 15 14 15
100 100 100 100 94 70 76 51 41 46 46 46 49 50 40 36 44 59 66 63 58 49 40 36 36 38 42 45 50 47 44 44 42 38 36 29 14 10 14 16 16 15 16 19
100 100 100 94 63 51 46 38 34 34 47 52 47 42 37 45 67 68 67 56 44 39 40 42 42 47 47 46 46 42 42 43 40 40 29 12 11 16 17 18 18 20 21 22
78 75 82 86 85 63 46 40 36 34 33 33 36 41 54 74 75 68 53 45 43 43 46 48 50 52 50 46 42 42 45 43 42 30 12 12 17 18 19 20 22 23 19 18
98 99 98 97 93 71 61 51 37 30 29 40 47 73 81 76 58 47 43 45 46 44 45 50 55 48 42 39 45 51 49 49 33 13 12 17 19 20 21 24 24 22 22 21
99 99 96 97 100 100 89 61 45 55 54 73 91 92 80 60 50 50 53 54 53 52 50 49 41 33 31 41 56 56 53 38 15 12 17 19 20 21 24 26 25 24 22 20

GFSNGP_500_rhum_114.txt.gz
RH
82 95 96 94 100 100 96 100 91 78 79 83 81 75 71 67 66 55 48 57 74 71 70 76 75 63 65 44 31 28 34 54 59 61 61 58 41 21 15 13 11 8 7 5
82 85 90 100 100 99 100 98 82 82 75 74 71 62 63 65 70 62 56 53 43 36 33 31 37 49 36 30 38 44 43 45 41 46 66 60 35 21 17 15 8 8 5 22
96 100 100 94 95 100 99 100 95 82 81 74 81 86 78 70 68 62 59 59 55 50 46 41 35 36 39 36 27 12 8 8 12 17 20 23 23 21 18 12 8 6 7 49
100 100 100 84 98 100 98 98 92 75 86 97 99 71 26 10 9 7 6 6 6 5 4 5 6 7 6 4 4 3 3 3 3 3 4 4 7 9 7 5 5 10 29 79
100 100 98 96 100 100 100 94 86 91 80 60 26 8 9 8 10 13 16 17 18 14 14 16 12 9 8 10 10 13 30 33 20 24 38 36 41 42 20 12 40 57 75 92
100 100 97 96 100 100 97 81 67 42 19 10 12 15 22 32 32 44 62 41 81 74 81 94 94 99 100 93 100 100 98 100 100 100 100 100 100 100 100 100 100 100 100 99
100 98 90 91 100 93 54 28 19 10 12 15 29 38 42 47 56 64 72 85 94 82 95 99 99 100 100 100 100 100 100 100 95 99 97 97 97 95 98 100 100 100 100 100
100 94 84 88 48 17 15 15 17 14 16 54 58 36 54 57 60 63 76 99 100 100 98 97 98 100 100 100 100 99 100 99 96 100 98 98 99 100 98 96 95 100 100 100
100 98 57 11 9 11 14 18 17 34 46 63 74 66 66 52 61 73 92 94 100 100 99 100 100 100 100 99 100 96 77 49 32 18 12 11 10 11 12 30 63 45 47 84
86 42 10 12 19 22 19 22 39 71 59 54 74 81 60 65 82 87 92 92 92 95 98 90 95 96 72 38 23 16 15 14 15 16 16 16 14 13 13 14 13 12 18 29
16 10 22 25 20 22 22 31 59 77 67 80 86 89 87 81 79 88 88 96 99 98 80 53 32 21 19 18 16 17 20 21 21 20 21 22 22 19 14 12 10 9 8 7
9 9 25 21 25 25 26 40 66 86 82 94 99 99 96 94 95 99 97 92 53 25 20 20 20 19 20 23 25 24 24 24 26 29 29 24 19 16 14 13 12 11 10 10
7 9 13 22 28 26 28 38 76 92 94 100 100 100 100 100 93 63 32 28 26 22 20 21 23 28 30 30 28 26 26 26 27 28 24 21 20 18 16 14 13 12 11 11
7 8 14 24 34 34 33 53 88 92 100 100 98 83 80 62 26 29 27 21 23 25 24 31 34 31 29 30 32 32 30 32 31 31 28 26 23 20 19 16 14 12 9 8
9 8 8 12 39 49 46 81 93 97 100 81 68 72 62 32 28 28 22 27 27 30 38 39 37 33 34 35 37 42 40 37 33 30 27 23 18 14 12 11 10 9 8 8
10 9 8 9 12 45 56 79 90 100 100 73 65 66 52 32 30 30 28 29 35 39 41 40 36 35 37 40 46 44 41 33 30 26 21 16 14 12 11 10 9 8 7 6
14 12 10 10 11 23 51 69 86 90 100 86 69 60 48 41 44 36 30 31 38 40 42 43 40 42 44 43 43 39 32 28 24 18 16 14 12 10 9 8 7 6 5 5
14 14 12 11 10 13 48 69 89 92 100 100 76 61 52 57 56 36 31 32 37 42 49 50 45 45 44 47 40 30 25 23 19 16 13 12 10 9 8 7 6 6 6 7
25 22 17 15 16 28 40 79 93 93 100 100 93 67 59 49 52 38 33 36 41 46 51 49 48 49 49 41 31 28 27 24 18 16 13 11 10 9 8 7 7 8 9 11
35 63 54 35 24 58 84 100 100 100 100 100 100 73 61 45 49 39 34 37 45 38 51 56 53 53 48 37 32 32 30 24 19 16 14 11 9 10 10 11 12 15 16 12
66 70 66 57 88 99 100 100 100 100 100 100 100 91 65 49 48 43 36 37 39 42 58 57 56 49 39 34 33 34 30 22 17 15 14 11 13 14 14 16 21 18 10 8
81 86 76 100 100 100 100 100 100 100 100 100 100 98 76 58 49 42 39 39 52 62 64 61 53 43 38 38 38 36 24 16 14 14 13 15 20 21 23 27 18 9 10 12
85 100 100 100 100 100 100 100 100 100 100 100 100 94 87 68 50 45 38 48 71 70 63 53 48 41 42 42 38 27 17 15 15 15 16 26 27 31 32 18 10 12 13 13
86 100 100 100 100 100 100 100 100 100 100 100 87 83 78 58 54 47 50 74 77 70 54 49 46 47 43 38 25 18 16 15 16 18 29 34 39 35 19 11 14 16 15 15
99 100 100 100 100 100 100 100 96 74 57 53 65 67 67 57 47 54 81 79 74 59 52 53 52 44 38 29 20 19 16 16 20 34 42 47 39 20 12 15 17 17 17 18
75 75 82 95 100 100 100 90 74 56 46 42 54 59 65 60 75 93 92 85 64 60 60 54 49 44 36 24 19 16 18 24 37 47 53 43 22 14 16 19 20 19 18 20
98 98 95 89 93 90 88 80 68 58 54 53 60 62 68 91 100 100 97 69 64 61 57 54 48 38 27 21 18 21 30 44 57 60 48 24 15 17 21 23 22 20 21 19

GFSNGP_500_rhum_117.txt.gz
RH
100 60 17 28 93 98 100 78 91 94 84 67 79 82 96 98 86 65 54 49 48 42 37 33 42 64 69 73 65 52 53 50 41 39 33 25 22 32 46 55 52 46 34 19
59 21 13 38 100 83 71 89 100 96 82 90 100 90 84 76 64 57 59 60 55 52 47 43 31 23 28 48 44 42 42 35 41 34 36 33 38 48 51 56 55 47 30 19
37 14 46 78 63 87 93 100 100 85 96 92 86 80 70 66 65 70 65 34 24 20 20 18 23 29 36 29 23 24 26 28 32 33 33 18 12 18 31 41 45 32 23 20
16 30 82 80 93 100 100 100 92 94 94 89 84 76 72 79 82 72 27 9 8 10 10 10 10 8 10 10 10 10 10 9 6 6 6 4 4 4 5 10 18 20 15 12
58 54 70 70 82 95 100 100 97 94 94 89 84 81 83 60 21 9 11 14 20 26 21 18 28 24 20 14 12 17 29 43 60 79 82 78 70 54 31 13 9 7 6 6
86 86 79 78 100 100 100 92 100 100 98 94 87 71 32 12 12 20 26 50 50 63 54 65 77 78 93 100 100 100 100 100 100 100 100 100 100 100 99 100 95 88 92 84
100 94 88 95 100 98 96 97 96 79 58 38 19 12 13 19 27 32 46 66 68 60 70 68 75 87 92 92 100 100 100 100 100 100 99 98 98 100 100 99 97 95 97 100
100 92 85 96 100 100 100 91 53 30 15 13 14 28 54 38 36 46 55 65 87 76 85 84 91 92 94 100 100 100 100 100 100 93 60 33 21 17 23 37 29 67 95 95
100 95 98 100 100 99 69 33 14 15 12 19 50 57 65 65 42 37 58 75 80 79 83 80 84 93 100 100 100 95 57 22 16 14 15 18 18 19 18 18 41 38 40 50
100 95 98 100 77 13 9 13 16 15 27 48 48 57 67 60 45 60 76 77 85 91 94 96 100 100 100 98 73 35 19 17 20 22 24 30 28 24 20 17 15 14 14 12
98 100 99 74 13 15 25 18 17 32 46 56 55 71 66 48 63 68 76 89 99 100 100 100 93 45 22 21 21 21 23 25 27 31 31 28 24 21 20 18 17 16 14 12
99 76 39 17 22 24 20 20 26 48 60 67 69 79 84 82 80 80 96 100 100 98 53 34 23 22 22 22 24 27 28 31 32 32 28 25 22 20 20 18 16 13 11 9
50 14 12 25 28 22 22 24 30 51 71 72 82 97 100 97 100 100 100 100 55 27 22 22 24 24 27 31 31 30 32 32 32 29 27 27 27 26 21 15 12 11 9 8
20 12 14 18 23 26 26 26 27 46 71 84 88 100 100 100 100 95 35 27 25 24 24 25 28 34 35 34 34 34 36 36 34 33 32 30 25 19 15 13 11 9 8 8
14 11 11 17 22 31 34 32 39 71 86 89 95 100 100 100 66 26 27 25 22 25 25 30 40 40 35 34 33 33 34 34 35 31 27 24 19 14 12 11 10 9 8 7
12 11 10 9 10 22 38 39 52 85 95 99 95 98 98 75 30 28 28 24 27 27 32 42 46 41 38 39 38 40 41 41 32 26 24 19 16 13 12 11 10 9 9 8
14 13 12 11 10 11 22 42 50 86 96 100 94 84 86 64 34 28 32 28 26 30 39 48 50 46 42 43 43 46 48 42 32 27 23 19 16 14 12 11 10 10 10 9
18 17 16 15 14 11 10 22 52 72 96 100 100 95 85 66 44 37 43 38 32 34 40 42 46 51 54 56 54 51 46 39 31 26 21 17 16 14 12 11 12 12 11 10
15 15 16 16 16 14 14 14 34 61 92 100 100 100 89 66 53 56 54 48 34 34 38 46 50 62 65 60 54 46 41 34 28 22 18 17 15 13 12 13 13 13 12 11
15 14 16 21 26 19 18 22 35 70 98 100 100 100 100 75 67 72 64 54 41 37 37 43 58 61 62 60 55 46 40 34 26 21 19 16 14 13 14 15 14 14 13 11
21 21 26 40 66 44 28 39 71 100 100 100 100 100 100 100 95 81 71 50 43 39 38 40 54 64 66 59 49 42 39 30 23 20 17 15 14 15 16 15 15 14 13 18
50 63 79 85 78 65 96 100 100 100 100 100 100 100 100 100 100 96 74 58 49 44 41 43 61 67 66 59 47 41 40 29 23 19 16 15 16 17 17 17 16 19 29 30
70 79 87 95 92 100 100 100 100 100 100 100 100 100 100 100 100 100 89 77 59 51 46 56 73 72 70 59 47 46 36 27 22 18 16 18 19 19 18 19 30 38 29 17
64 100 100 100 100 100 100 100 100 100 100 100 100 100 100 100 100 100 98 72 60 53 63 85 84 78 69 52 50 40 31 26 22 18 19 20 20 21 27 40 42 27 16 14
82 100 100 100 100 100 100 100 100 100 100 100 100 100 100 100 100 97 74 60 59 83 95 95 93 79 58 53 44 35 29 23 20 22 22 23 28 37 49 40 23 15 17 21
82 96 100 100 100 100 100 100 100 100 100 100 100 100 100 100 92 76 67 71 89 97 100 99 87 66 58 49 41 34 26 22 24 23 29 38 50 56 37 21 16 19 24 27
100 99 98 97 99 100 100 100 100 100 100 99 96 94 81 77 76 75 76 95 100 100 100 93 72 63 55 48 38 28 26 26 28 37 51 61 59 35 19 18 22 27 31 32

GFSNGP_500_rhum_123.txt.gz
RH
76 82 100 97 79 83 95 96 100 67 74 69 40 90 100 100 96 94 86 97 100 100 94 81 64 54 52 51 48 45 42 35 33 33 32 40 48 53 62 66 34 27 22 29
67 66 67 69 80 79 88 94 90 100 61 72 62 54 100 97 90 94 86 100 100 98 89 74 61 45 28 18 10 6 14 28 35 33 35 32 28 25 25 24 24 24 25 28
47 51 68 70 37 63 88 84 72 62 64 51 24 57 86 100 97 95 89 100 100 96 84 56 26 10 11 10 9 8 5 4 6 6 8 6 6 6 6 7 8 11 17 19
42 84 90 48 65 75 94 66 66 79 75 38 35 83 79 82 98 99 96 100 100 94 47 20 29 36 38 45 48 37 31 20 16 18 27 31 53 72 69 67 52 47 50 37
83 56 77 77 68 84 73 50 70 52 30 20 43 78 81 93 100 94 100 100 94 37 24 43 60 60 67 74 89 98 99 96 98 100 100 100 100 100 100 100 100 100 100 99
100 98 75 61 80 76 59 32 34 23 26 47 73 80 100 100 97 100 83 42 19 30 40 51 61 75 88 100 99 100 100 100 100 100 100 100 100 99 96 82 53 45 45 92
100 100 100 77 60 59 35 36 28 36 54 83 94 96 97 100 95 55 21 20 55 53 46 64 70 93 98 84 99 100 100 100 100 100 100 89 48 29 27 38 59 50 69 73
100 100 87 64 55 42 36 32 58 80 96 98 98 95 98 82 31 17 30 71 66 44 62 84 99 96 100 100 100 100 100 96 56 38 34 34 34 35 34 29 24 21 19 18
99 78 63 46 42 42 46 75 94 100 97 90 91 91 36 20 14 40 58 72 57 54 78 91 99 100 100 100 100 98 92 76 42 38 38 38 37 32 28 25 24 22 20 18
97 77 53 55 56 46 62 92 97 96 96 92 63 22 16 21 43 50 57 66 43 57 75 98 98 96 100 100 94 59 48 38 38 38 37 36 33 31 30 28 26 23 20 16
83 77 73 60 56 66 89 97 99 96 95 60 20 21 34 44 55 66 69 55 69 75 88 100 96 99 98 58 30 34 35 34 35 37 37 36 36 37 34 32 26 22 18 15
76 85 81 92 91 97 96 95 100 82 25 23 23 44 53 69 66 55 58 73 81 89 100 100 100 67 33 26 32 34 36 38 39 39 39 36 34 33 27 24 20 16 14 12
91 100 100 100 100 100 100 100 94 42 26 24 42 58 66 81 72 81 74 92 100 100 100 95 78 27 26 34 35 35 37 38 38 39 39 35 31 27 24 21 20 18 17 15
100 100 100 100 100 97 88 54 27 35 29 36 50 67 68 89 92 94 100 100 100 100 91 66 30 28 34 36 36 35 36 36 39 40 38 37 38 35 29 26 22 20 18 16
99 98 100 100 76 30 32 42 38 32 30 29 38 62 80 96 100 100 100 100 100 90 40 31 30 34 39 40 38 38 37 39 42 41 38 38 38 34 29 26 24 22 18 17
100 100 87 61 25 19 37 52 40 35 31 31 46 74 87 100 100 100 100 100 72 32 30 29 35 42 44 46 42 42 44 48 44 42 40 36 39 35 31 29 27 23 20 19
100 88 38 20 18 21 26 32 38 38 36 38 73 92 97 100 100 100 100 93 41 32 30 31 34 43 46 41 40 45 50 50 46 48 44 42 43 39 37 37 29 24 22 21
20 20 19 18 16 15 15 19 31 41 47 51 91 100 100 100 100 100 100 91 40 32 32 33 35 36 35 36 41 46 50 42 41 38 42 46 52 53 53 48 33 26 25 23
40 31 23 20 20 19 18 17 16 19 37 56 76 100 100 100 100 100 100 98 60 38 36 40 44 44 36 34 36 39 39 35 34 33 35 44 55 64 64 48 32 29 27 25
17 15 14 14 14 15 16 17 18 18 19 30 62 89 100 100 100 100 100 100 94 74 57 53 61 56 49 46 44 41 40 36 34 33 40 58 74 72 61 42 35 32 28 27
20 18 20 22 21 20 19 18 18 24 23 31 47 85 100 100 100 100 100 100 100 94 86 79 77 72 65 59 58 52 49 47 39 40 54 69 72 64 52 42 37 31 29 28
32 29 26 23 20 16 15 17 24 33 39 50 95 99 100 100 100 100 100 100 100 100 100 100 100 100 97 87 77 72 72 62 50 59 70 75 69 56 48 40 33 30 30 28
44 33 32 31 36 52 57 64 100 99 78 100 100 100 100 100 100 100 100 100 100 100 100 100 100 100 100 100 99 96 76 61 74 74 81 76 63 53 41 33 31 30 28 27
36 45 64 51 55 66 99 85 83 92 98 100 100 100 100 100 100 100 100 100 100 100 100 100 100 100 100 100 97 75 74 80 84 88 82 68 55 39 33 32 31 30 31 36
37 74 73 80 76 83 93 97 93 100 86 88 96 100 100 100 100 100 100 100 100 100 100 100 100 100 100 96 87 80 89 92 94 84 69 53 38 34 33 34 34 38 43 33
49 59 66 84 84 92 94 98 100 75 96 100 97 98 100 100 100 100 100 100 100 100 100 100 100 100 95 82 84 96 98 95 86 69 49 40 36 36 39 42 48 47 27 12
80 93 99 98 100 100 100 100 100 100 100 100 100 100 100 100 100 100 100 100 100 100 100 100 100 97 93 95 100 100 98 87 64 48 44 41 42 46 50 55 46 18 12 15

GFSNGP_500_rhum_129.txt.gz
RH
99 100 100 100 100 94 95 99 99 87 100 86 100 100 98 70 56 73 62 59 64 49 80 95 84 66 58 59 62 58 57 54 51 46 30 31 35 34 37 40 46 72 100 92
98 89 100 100 91 76 100 88 91 100 93 83 100 100 100 82 63 62 58 58 47 48 56 63 70 79 84 79 73 75 70 55 20 8 6 7 7 11 13 29 34 36 32 39
91 100 100 99 55 89 85 87 94 94 90 82 100 100 84 89 45 43 51 44 60 64 28 24 81 86 80 84 84 82 49 17 19 23 20 14 13 11 14 20 33 31 32 37
97 100 100 70 68 72 75 83 71 95 100 100 100 88 37 42 62 57 40 62 51 60 42 75 100 94 98 98 84 28 30 51 58 56 55 52 46 55 68 100 100 100 95 94
100 98 96 94 70 75 79 65 63 64 41 61 71 30 39 49 44 41 36 37 23 38 66 87 97 100 100 60 21 40 58 71 88 86 96 99 100 100 100 100 100 100 100 100
100 98 92 64 77 100 84 65 55 49 42 37 32 37 45 33 20 17 20 22 32 95 85 100 100 100 39 28 38 59 80 81 78 96 100 100 100 100 100 100 100 68 49 55
99 100 89 60 65 84 60 41 39 36 41 69 71 46 35 25 20 17 17 42 82 100 100 100 97 28 42 42 57 85 78 91 85 97 100 100 100 99 88 52 46 39 32 27
78 64 54 45 39 37 34 24 29 36 72 70 49 42 27 21 17 31 59 94 100 100 100 87 30 54 52 65 90 97 93 80 100 100 98 92 91 72 53 42 37 32 28 26
79 78 97 100 100 99 75 91 100 100 89 61 47 32 20 18 33 87 100 100 100 100 67 28 65 73 63 92 94 86 82 100 94 94 90 57 48 48 43 38 34 32 29 26
66 48 57 81 93 100 99 93 86 69 48 38 32 24 19 34 84 100 100 100 95 37 26 58 74 69 89 91 87 89 100 100 94 72 53 46 47 45 40 36 33 30 29 28
69 56 46 40 44 65 91 72 56 55 56 45 37 39 26 72 100 100 87 55 32 34 56 68 62 81 96 93 100 100 93 74 67 57 45 42 42 40 36 33 28 29 34 33
82 90 100 87 95 85 82 89 83 75 67 58 53 52 75 100 100 61 29 40 48 52 65 74 62 89 92 97 100 84 76 59 40 38 41 42 40 36 33 30 30 34 36 31
96 98 93 67 66 73 75 81 90 95 99 92 68 86 100 92 48 40 48 70 79 83 74 61 95 98 92 100 93 58 36 38 39 44 44 40 38 37 34 32 34 34 30 27
100 79 79 70 68 68 82 97 97 97 100 100 100 100 94 40 38 58 84 76 72 74 76 100 100 99 100 83 48 33 36 39 40 42 38 37 37 34 33 32 30 36 37 39
69 63 64 62 61 85 100 100 100 100 100 100 100 98 53 37 60 65 91 87 83 89 97 100 100 100 100 71 35 34 39 39 40 38 38 41 44 35 32 31 34 32 31 28
54 50 61 86 98 100 100 100 100 100 99 89 71 56 40 57 76 78 93 100 100 100 100 100 100 98 88 62 35 36 47 48 44 44 42 49 49 38 35 33 30 30 38 42
74 98 100 97 100 100 99 96 82 60 67 65 56 48 43 44 53 70 98 100 100 100 100 100 100 100 84 43 35 38 50 55 54 53 55 53 45 38 37 37 49 59 61 61
100 100 84 99 100 100 61 33 38 35 69 72 61 56 53 45 53 86 95 100 100 100 100 100 100 100 51 38 38 40 50 52 54 53 50 44 44 44 44 50 55 61 68 66
84 28 22 22 28 26 22 24 25 30 50 66 69 65 59 56 70 100 100 100 100 100 100 100 99 64 45 42 40 41 46 50 54 89 82 56 54 56 61 68 77 79 68 54
33 47 66 68 66 60 46 32 24 21 22 30 51 79 87 93 99 100 100 100 100 100 100 100 100 73 54 43 42 43 44 47 57 85 90 91 91 94 96 91 81 67 59 62
31 24 22 18 16 16 17 18 18 20 24 26 27 46 83 100 100 100 100 100 100 100 100 100 100 100 98 81 67 64 69 79 89 96 100 100 100 97 89 84 76 65 73 70
28 36 32 24 21 18 18 19 22 24 24 24 26 33 52 85 100 100 100 100 100 100 100 100 100 100 100 100 100 100 100 100 100 100 100 100 98 89 88 78 74 78 74 70
45 39 21 18 24 29 32 24 26 27 19 22 29 36 71 100 100 100 100 100 100 100 100 100 100 100 100 100 100 100 100 100 100 100 100 100 93 93 81 83 84 80 70 50
52 37 23 28 46 55 57 46 42 53 62 67 60 78 95 100 100 100 100 100 100 100 100 99 98 100 100 100 100 100 100 99 99 100 100 97 97 92 93 91 88 67 56 55
46 43 34 36 48 55 72 75 67 64 78 98 100 99 100 100 96 94 92 92 95 100 100 100 100 100 99 99 100 100 100 100 99 100 100 100 96 98 96 88 68 64 60 54
50 51 53 55 63 76 80 84 86 84 68 58 88 64 82 98 99 98 95 96 91 100 100 99 99 100 100 100 100 100 99 100 100 100 100 99 100 95 85 76 72 64 61 61
41 61 63 65 72 78 77 80 86 90 90 82 85 97 96 90 88 94 98 98 99 100 100 100 100 100 100 100 100 100 100 100 100 100 100 98 93 90 89 78 68 67 68 68

GFSNGP_500_rhum_132.txt.gz
RH
100 96 100 97 87 94 92 99 100 64 95 74 100 100 94 100 100 89 79 96 78 67 65 49 36 38 42 48 59 58 55 77 74 61 58 60 49 23 9 11 14 16 30 38
100 96 98 100 98 86 100 100 100 80 95 100 100 99 100 100 94 76 85 87 89 86 40 33 43 44 58 45 28 57 76 67 68 78 73 28 14 15 14 11 11 14 19 29
94 100 100 100 62 100 88 96 97 100 95 80 86 90 100 100 87 88 70 94 79 37 36 38 52 58 50 47 59 98 90 94 95 50 27 44 46 38 37 41 42 74 98 80
91 97 99 81 89 100 100 99 100 100 100 100 89 100 100 85 65 68 78 58 44 38 42 40 40 38 98 94 84 88 100 95 29 40 57 72 74 74 90 82 100 100 100 100
100 100 100 97 66 91 100 100 78 87 86 85 86 90 98 86 83 76 72 41 34 20 14 18 25 22 26 43 95 100 97 30 41 66 71 82 97 100 100 100 100 100 100 100
100 100 100 59 69 100 100 89 88 100 85 78 80 82 80 60 52 48 50 44 22 20 16 16 36 100 93 98 100 98 36 42 69 72 82 92 98 100 100 100 100 100 77 59
100 100 90 60 84 100 100 64 83 80 81 70 59 50 44 40 42 58 52 26 17 15 24 44 49 90 90 100 99 53 49 69 90 90 89 98 97 100 100 96 79 64 52 34
99 100 86 79 78 99 94 90 72 57 45 39 28 33 50 47 61 48 31 22 16 26 69 100 100 100 100 99 52 64 64 94 100 82 100 100 100 98 94 77 47 38 38 36
100 100 93 99 78 99 99 98 67 52 33 30 37 59 95 86 57 35 22 17 31 77 100 100 100 100 96 48 82 65 94 100 94 100 100 100 96 89 63 46 45 43 38 34
62 56 61 40 46 81 97 100 92 100 97 83 80 91 95 74 37 22 18 28 82 91 100 100 100 63 37 70 75 84 95 92 100 88 85 92 62 50 49 47 42 35 30 28
90 59 82 59 56 53 47 47 44 46 76 84 84 81 58 42 32 30 39 90 92 98 100 93 44 39 70 72 82 95 92 99 100 100 65 56 45 45 47 44 39 33 28 23
96 100 91 89 98 97 80 70 75 72 79 80 65 58 65 61 43 44 88 100 99 68 40 42 49 57 70 70 94 96 97 99 75 77 73 57 48 42 40 38 34 30 26 25
74 80 74 79 73 100 91 71 68 63 78 85 91 85 76 66 59 94 100 100 79 42 48 61 65 75 79 83 95 96 100 88 78 52 41 43 43 42 38 36 36 34 31 29
92 86 97 93 87 84 75 73 89 68 85 100 99 96 96 100 100 100 78 42 54 72 82 87 89 82 71 97 98 99 100 70 42 39 42 44 43 40 40 42 46 38 31 28
100 100 93 94 74 75 76 77 63 77 98 98 99 100 100 100 100 88 50 59 75 90 87 88 76 86 100 100 100 100 93 46 40 41 41 40 39 38 39 45 51 46 36 31
80 67 65 54 50 50 56 72 83 98 98 100 100 100 100 100 92 54 69 79 93 100 95 94 98 100 100 100 100 100 70 40 40 47 48 45 44 46 48 52 50 43 37 36
64 57 50 48 69 91 91 92 100 98 99 98 100 100 100 82 57 81 91 87 100 100 100 100 100 100 100 100 100 100 96 43 41 49 57 56 54 53 53 51 44 43 44 48
45 58 74 99 100 95 100 100 95 59 79 61 75 81 76 65 59 58 56 69 94 100 100 100 100 100 100 100 100 100 87 46 40 44 55 61 61 72 80 89 77 74 80 86
90 99 100 96 40 30 58 70 49 30 31 34 47 78 70 68 73 72 69 88 100 100 100 100 100 100 100 100 100 100 62 42 41 43 46 51 56 56 75 96 100 98 97 86
100 100 74 52 69 76 69 68 56 43 27 24 34 56 88 99 99 96 93 100 100 100 100 100 100 100 100 100 100 90 66 66 54 47 46 47 50 59 94 100 97 99 92 79
92 85 38 26 28 23 21 19 18 18 19 24 27 28 43 90 100 100 100 100 100 100 100 100 100 100 100 100 100 100 97 90 77 74 75 85 100 100 98 99 98 96 84 83
27 29 35 33 21 15 15 17 18 15 15 20 24 24 30 41 84 100 100 100 100 100 100 100 100 100 100 100 100 100 100 100 100 100 100 100 100 100 98 96 96 94 92 88
28 38 40 19 18 24 24 26 32 30 25 32 39 23 28 38 62 99 100 100 100 100 100 100 100 100 100 100 100 100 100 100 100 100 100 100 100 100 99 96 98 99 95 92
34 46 41 22 23 32 36 42 53 51 44 35 43 69 58 36 53 100 100 100 100 100 100 100 100 100 100 100 100 100 100 100 100 100 100 100 100 100 100 100 100 100 94 87
37 46 38 34 33 38 48 59 61 68 64 46 42 70 70 85 83 98 100 100 97 100 100 100 100 99 92 88 98 100 100 100 100 100 100 100 100 100 100 100 99 94 90 86
43 44 43 44 46 54 60 64 64 67 75 73 62 62 87 71 94 100 90 86 90 98 99 99 98 94 94 100 100 100 100 100 100 100 100 100 100 100 100 98 95 94 84 64
27 24 28 46 60 63 64 67 71 73 74 81 86 88 95 91 88 86 96 100 100 100 99 100 100 100 100 100 100 100 100 100 100 100 100 100 100 100 98 97 92 71 63 67

GFSNGP_500_rhum_135.txt.gz
RH
100 100 100 100 100 100 94 99 100 87 95 88 92 100 95 99 100 99 100 98 100 100 100 100 99 85 84 79 58 30 32 48 59 35 58 66 76 82 68 39 19 14 12 18
100 100 100 100 100 99 100 100 100 100 77 88 88 92 100 96 100 94 77 90 100 100 100 90 92 85 74 44 35 34 51 40 28 62 64 87 85 30 26 30 28 26 40 77
100 100 100 100 89 100 100 100 100 100 96 100 100 100 100 98 91 88 74 81 88 100 100 100 91 91 44 33 24 26 29 98 65 79 89 82 26 50 59 58 54 76 99 100
98 100 100 94 100 100 100 100 100 100 94 86 99 100 99 100 100 100 99 97 98 97 100 98 81 32 19 15 11 13 16 62 68 96 87 33 57 73 84 88 100 100 100 100
92 90 91 90 80 82 74 83 77 82 92 100 100 100 100 94 97 95 85 94 99 100 90 57 44 22 22 17 16 19 76 65 91 98 38 59 69 77 78 96 100 100 100 100
70 66 56 51 100 100 100 86 89 93 90 92 97 99 100 100 97 93 90 98 100 89 72 60 34 18 17 18 21 60 100 100 100 55 51 80 78 64 74 93 100 100 100 85
100 98 81 88 94 100 100 76 98 99 95 89 99 100 97 95 95 92 96 81 66 45 52 56 24 19 15 34 57 72 88 100 76 52 88 91 84 83 98 100 98 92 77 58
98 100 87 88 100 100 100 97 84 77 94 95 96 88 89 76 73 64 45 50 44 63 57 28 21 19 28 79 99 100 100 94 65 75 99 85 87 100 100 94 71 54 43 43
48 86 85 78 89 99 94 88 87 90 88 79 75 65 50 42 34 30 37 52 80 59 23 21 18 56 95 100 100 100 86 78 74 100 100 95 97 100 96 71 49 50 47 44
42 33 40 64 87 83 97 100 94 81 99 99 93 100 83 67 85 99 100 94 69 36 22 19 65 100 100 100 100 69 61 79 96 100 100 94 98 90 70 52 50 49 42 37
48 86 75 79 77 66 68 65 58 48 48 63 78 83 72 88 91 91 80 59 38 25 24 32 97 100 100 85 40 63 81 90 100 100 98 89 98 89 58 51 49 44 40 36
21 98 95 100 99 100 100 85 77 97 75 65 49 54 64 86 94 84 87 62 49 45 35 87 97 80 57 56 54 83 83 100 100 100 100 94 57 57 57 53 46 43 41 40
78 83 100 98 94 79 76 72 92 92 79 60 61 66 66 74 79 76 73 64 63 55 67 100 73 65 67 64 64 82 93 100 100 100 74 74 70 51 52 50 44 43 44 44
100 99 80 66 53 82 77 78 72 70 71 61 72 62 75 92 96 98 100 97 74 72 98 76 79 82 84 78 81 86 100 100 100 100 80 70 46 46 48 47 41 39 40 46
97 77 63 80 92 97 94 85 77 69 74 72 56 78 94 95 97 97 98 100 100 88 78 88 100 100 100 100 100 100 100 100 100 100 78 48 46 46 44 41 39 42 47 50
85 83 76 94 95 76 61 49 45 44 43 68 84 90 94 96 100 100 100 100 99 99 94 100 100 100 96 93 100 100 100 100 100 100 77 47 47 49 48 48 48 51 53 54
91 100 76 60 55 50 46 50 88 87 84 93 95 100 100 100 100 100 99 99 100 100 100 100 100 100 100 100 100 100 100 100 100 100 89 54 46 49 54 58 59 59 68 81
81 66 48 47 68 75 94 96 89 93 97 93 67 94 96 100 100 97 100 100 99 99 100 100 100 100 100 100 100 100 100 100 100 100 99 66 46 44 47 50 56 61 63 68
54 52 65 82 96 100 84 38 38 72 74 42 29 36 53 93 96 89 83 76 71 85 100 100 100 100 100 100 100 100 100 100 100 100 100 84 55 54 54 59 64 64 73 86
62 79 96 100 98 89 76 61 43 46 57 62 54 32 28 56 90 89 87 88 88 88 100 100 100 100 100 100 100 100 100 100 100 100 100 87 78 85 71 72 95 96 94 93
100 100 97 65 27 27 23 17 16 15 15 15 16 18 24 32 41 84 100 100 100 100 100 100 100 100 100 100 100 100 100 100 100 100 100 100 100 100 100 100 95 96 97 98
78 37 26 29 32 17 14 15 15 17 18 20 16 16 15 22 28 39 95 100 100 100 100 100 100 100 100 100 100 100 100 100 100 100 100 100 100 100 98 99 100 100 100 100
23 27 30 41 24 16 22 23 26 35 41 35 25 26 38 29 30 32 61 100 100 100 100 100 100 100 100 100 100 100 100 100 100 100 100 100 98 100 100 100 100 100 99 96
28 30 41 42 29 22 27 37 45 49 46 49 47 36 38 54 45 48 48 100 100 100 100 100 100 100 100 100 100 100 100 100 100 100 100 100 100 100 100 100 100 100 94 94
29 30 37 40 34 33 37 45 54 55 52 50 54 57 58 60 64 60 70 58 94 100 100 98 98 100 98 99 99 98 100 100 100 100 100 100 100 100 100 100 100 97 99 100
28 30 41 42 43 48 52 55 57 56 59 62 63 66 72 76 72 71 78 96 95 83 83 92 96 95 94 98 100 100 98 95 98 100 100 100 100 100 100 100 100 100 100 100
20 34 26 22 21 24 40 54 61 60 59 63 68 73 80 82 84 90 89 95 90 82 88 92 92 93 91 94 99 100 100 100 100 100 100 100 100 100 100 100 100 100 100 84

GFSNGP_500_rhum_138.txt.gz
RH
92 100 86 72 84 100 100 100 100 74 94 98 94 100 100 98 92 97 99 94 99 99 99 100 100 100 100 100 100 98 95 65 56 45 23 23 46 34 62 66 47 33 30 25
100 100 99 92 99 97 100 100 100 98 77 73 100 99 88 100 99 95 100 92 100 100 100 100 100 100 100 100 100 94 72 51 37 17 12 11 75 62 71 46 42 46 55 50
99 100 100 100 100 100 100 100 100 100 91 100 92 99 100 98 97 94 96 100 98 99 100 100 100 100 95 97 93 69 38 32 21 17 13 44 58 78 48 52 60 69 91 99
100 100 100 99 100 100 100 100 100 100 99 98 100 100 100 99 99 88 77 94 100 100 100 100 100 98 99 100 88 66 26 24 18 14 63 74 68 72 51 62 68 86 96 100
100 99 93 99 100 99 100 100 100 100 100 100 100 100 100 97 86 78 84 99 99 97 100 100 100 99 100 100 82 48 24 20 13 15 80 83 91 47 68 71 65 72 95 100
48 46 60 59 64 93 90 85 92 94 94 92 82 64 56 64 85 99 92 93 100 100 100 100 98 100 100 86 54 41 21 17 18 57 82 97 64 74 80 68 71 77 93 99
30 36 32 29 40 100 92 76 75 89 98 73 74 75 72 90 94 91 83 87 88 99 100 96 91 74 50 46 50 24 20 28 74 94 100 92 63 86 79 79 87 100 93 88
67 51 44 54 77 96 100 72 72 89 93 83 88 86 90 99 100 95 93 98 100 96 91 68 48 46 57 51 26 19 18 67 100 100 92 70 92 88 91 93 95 84 64 54
52 56 59 52 54 71 95 90 86 81 76 75 86 89 78 86 90 97 98 85 62 47 31 29 46 76 48 21 20 28 70 96 100 98 79 91 100 99 98 100 91 64 58 53
30 21 16 18 25 40 50 56 70 82 96 95 88 96 100 98 99 91 80 65 56 61 96 100 90 69 39 27 31 91 100 100 97 67 90 100 100 100 100 100 72 58 56 50
30 23 14 13 33 50 49 44 67 94 100 99 83 76 75 82 88 89 85 83 80 84 88 94 98 66 42 31 53 100 100 91 66 93 100 100 99 96 100 95 79 58 53 46
28 20 18 13 11 10 25 82 69 75 86 99 84 75 68 57 53 45 50 55 92 100 100 100 97 75 59 51 93 100 85 74 100 100 100 100 96 89 95 91 76 68 60 50
14 14 14 14 10 49 38 82 80 78 72 92 78 93 82 64 57 57 58 74 85 89 87 91 83 71 65 78 96 82 97 91 100 100 100 100 100 100 82 74 63 56 52 47
20 20 14 13 26 87 84 60 52 48 46 55 86 80 57 55 58 57 76 95 100 100 100 100 88 81 100 100 95 100 100 99 100 100 100 100 100 80 94 72 54 53 47 42
31 30 63 96 100 78 41 54 68 77 87 88 93 86 68 60 60 89 96 98 100 100 100 100 100 100 100 100 100 100 100 100 100 100 100 100 100 96 91 57 50 49 44 42
44 78 94 89 84 52 37 60 84 72 59 58 59 53 51 78 92 97 96 100 100 100 100 100 100 100 100 100 100 100 100 100 100 100 100 100 100 98 92 68 56 55 57 57
98 100 92 86 88 90 84 72 52 42 42 62 78 82 92 93 100 100 100 100 100 100 100 100 100 100 100 100 100 100 100 100 100 100 100 100 100 100 94 84 65 56 56 62
100 100 85 83 94 80 48 47 64 90 85 82 95 98 91 70 98 100 100 100 100 100 100 100 100 100 100 100 100 100 100 100 100 100 100 100 100 100 100 99 78 60 68 74
99 86 71 61 65 69 86 100 92 55 45 56 67 68 36 31 45 82 100 100 100 99 100 94 99 100 100 100 100 100 100 100 100 100 100 100 100 100 100 100 98 81 71 88
74 73 89 99 100 100 100 92 68 37 24 20 22 32 49 56 36 38 87 100 100 100 94 92 100 100 100 100 100 100 100 100 100 100 100 100 100 100 100 100 100 100 100 100
82 99 100 100 97 47 24 18 12 12 12 13 14 12 12 14 20 28 36 93 100 100 100 100 100 100 100 100 100 100 100 100 100 100 100 100 100 100 100 100 100 100 100 100
100 100 90 41 29 26 14 16 17 21 25 25 22 24 24 18 18 18 23 37 97 100 100 100 100 100 100 100 100 100 100 100 100 100 100 100 100 100 100 99 97 100 100 100
86 37 26 26 33 20 17 23 28 33 37 35 35 31 30 33 30 27 26 31 37 100 100 100 100 100 100 100 100 100 100 100 100 100 100 100 100 100 100 100 100 100 99 100
19 25 26 36 40 31 22 26 34 43 45 46 43 43 43 38 40 42 33 50 42 46 100 100 100 100 100 100 100 100 100 100 100 100 100 100 100 100 100 100 100 99 100 100
26 28 30 33 38 34 32 33 39 46 50 48 50 52 53 52 56 64 50 49 60 56 98 100 100 100 100 100 100 96 99 100 100 100 96 95 96 98 100 100 100 100 100 100
27 27 27 28 35 37 39 42 44 50 52 53 50 52 58 64 70 72 77 72 65 72 79 78 89 90 94 100 99 97 89 89 95 96 100 100 100 100 100 100 100 100 100 100
18 20 26 30 21 20 20 20 22 31 41 46 49 54 56 63 73 81 84 87 94 98 96 97 97 99 99 98 100 100 100 100 100 100 100 100 100 100 100 100 100 100 100 100

GFSNGP_500_rhum_144.txt.gz
RH
100 100 97 97 94 92 96 100 100 100 98 59 91 99 76 87 88 94 96 97 98 100 100 98 99 100 100 98 100 100 100 97 86 99 100 100 100 94 73 60 50 34 23 16
100 98 47 35 48 93 100 100 100 100 98 74 82 87 76 88 99 100 98 100 100 100 100 100 100 100 99 100 100 100 94 100 97 100 100 94 96 89 81 61 39 26 17 11
71 58 61 48 46 100 97 98 97 100 100 100 72 66 80 100 94 94 100 100 99 99 100 100 100 99 100 100 96 99 97 91 85 96 100 95 90 95 82 52 26 22 14 32
79 75 99 74 75 97 92 83 83 84 92 100 100 100 88 72 70 67 80 98 97 100 100 100 100 99 100 100 100 99 100 97 100 97 100 98 93 86 62 39 27 16 28 50
100 93 82 85 93 86 83 68 60 57 87 91 89 99 100 100 85 100 100 100 100 100 100 100 100 100 100 97 96 100 99 100 100 100 100 95 95 74 44 31 24 28 49 50
98 100 75 68 73 59 41 42 37 39 55 67 64 66 83 96 100 100 100 100 100 100 100 100 100 100 100 97 100 99 99 100 100 100 98 99 85 46 33 24 23 59 59 52
85 100 66 65 51 37 35 33 26 27 58 58 52 56 56 58 84 78 98 99 99 99 100 100 100 100 100 100 96 100 100 100 100 90 92 71 52 35 21 22 60 79 62 73
100 88 51 60 39 47 33 38 48 54 83 92 93 96 100 96 97 100 100 100 99 100 100 98 98 100 99 96 96 74 70 74 80 63 65 58 34 26 26 48 77 78 88 87
100 90 58 42 64 45 25 21 30 30 32 31 39 42 59 79 92 94 98 100 100 97 97 95 91 83 92 97 92 87 68 42 41 61 71 40 26 32 35 63 83 81 100 97
100 70 58 65 44 40 26 19 15 20 24 15 17 8 9 22 47 99 100 100 100 97 91 96 92 82 84 81 99 57 62 66 65 76 74 44 37 36 57 85 90 97 100 100
81 75 77 49 36 33 32 31 28 23 18 16 14 12 9 30 48 70 97 100 99 98 88 83 77 78 75 76 74 72 88 88 88 92 74 60 51 68 85 95 98 100 100 100
81 100 71 53 47 43 41 34 32 29 22 17 16 12 11 26 74 76 78 78 61 72 71 65 56 52 52 52 55 75 89 100 99 100 80 70 89 100 96 100 100 100 100 100
86 65 73 78 63 59 53 47 40 33 26 21 19 15 13 26 92 84 91 79 70 92 89 80 64 59 55 53 70 92 100 99 100 100 100 97 100 100 100 100 100 100 100 100
90 80 81 75 67 52 34 27 20 16 12 12 10 11 16 32 55 55 60 82 84 72 68 67 62 56 50 68 89 100 100 98 100 100 100 100 100 100 100 100 100 100 100 92
67 65 50 30 22 20 16 13 12 12 14 19 39 94 86 70 86 87 82 86 92 100 100 76 52 42 64 87 98 97 97 94 100 100 100 100 100 100 100 100 100 100 100 100
32 22 17 15 14 15 18 25 40 30 77 97 100 100 92 69 58 52 61 93 98 91 66 50 63 78 88 88 85 88 97 100 100 100 100 100 100 100 100 100 100 100 100 100
22 21 17 38 50 64 75 78 88 100 100 92 100 98 63 52 50 54 62 74 86 92 91 98 100 99 98 100 100 96 100 100 100 100 100 100 100 100 100 100 100 100 100 100
20 20 51 61 67 80 90 95 96 100 100 93 75 65 77 96 73 79 88 100 100 87 91 100 100 100 100 100 100 100 100 100 100 100 100 100 100 100 100 100 100 100 100 100
38 43 54 62 76 90 96 92 85 87 81 96 100 98 94 84 80 79 74 74 51 38 60 100 100 100 100 100 100 100 100 100 100 100 100 100 100 100 100 100 100 100 100 100
38 44 69 91 88 77 85 90 99 100 100 87 42 17 13 12 12 12 13 14 17 32 48 68 100 100 100 100 100 100 100 100 100 100 100 100 100 100 100 100 100 100 100 100
60 75 81 75 72 92 100 100 85 46 16 15 17 16 15 13 15 16 15 18 18 16 12 22 74 100 100 100 100 100 100 100 100 100 100 100 100 100 100 100 100 100 100 100
76 76 77 86 100 100 86 45 16 16 21 26 28 27 26 28 30 28 27 27 29 32 27 18 15 54 100 100 100 100 100 100 100 100 100 100 100 100 100 100 100 100 100 100
66 75 92 100 100 72 38 22 19 23 30 34 32 32 32 33 36 37 36 35 35 38 42 36 25 18 42 100 100 100 100 100 100 100 100 100 100 100 100 100 100 100 100 100
80 99 100 100 51 31 32 24 18 23 27 33 37 40 39 37 36 35 36 38 44 49 52 54 45 28 24 64 100 100 100 100 100 100 100 100 100 100 100 100 100 100 100 100
100 98 77 26 25 32 40 37 30 26 29 33 39 40 34 27 25 25 27 29 33 37 51 61 70 67 45 42 74 96 100 100 100 100 100 100 100 100 100 100 100 100 100 100
30 18 20 26 28 30 33 36 36 36 33 23 20 23 25 24 23 24 26 29 31 34 40 50 65 84 95 92 84 84 93 98 100 100 98 100 100 100 100 100 100 100 100 100
17 23 26 27 27 29 31 32 21 20 21 23 25 27 27 27 30 33 34 34 34 37 44 62 77 86 99 100 100 100 100 100 100 98 97 98 98 100 100 100 100 100 100 100